Weather History for PAWG - March, 2013

Change the Weather History Date:

Thursday, March 21, 2013

  Actual Average (WUND) Record (WUND)
Temperature  
Mean Temperature 30 °F -  
Max Temperature 33 °F - - (-1)
Min Temperature 26 °F - - (-1)
Degree Days  
Heating Degree Days 36    
Moisture  
Dew Point 21 °F    
Average Humidity 71    
Maximum Humidity 80    
Minimum Humidity 60    
Precipitation  
Precipitation 0.01 in - - ()
Sea Level Pressure  
Sea Level Pressure 30.02 in    
Wind  
Wind Speed 9 mph (NNE)    
Max Wind Speed 16 mph    
Max Gust Speed 20 mph    
Visibility 10 miles    
Events      
Averages and records for this station are not official NWS values.
T = Trace of Precipitation, MM = Missing Value Source: NWS Daily Summary

Daily Weather History Graph

Daily Weather History Graph

Search for Another Location

Airport or City:

Trip Planner

Search our weather history database for the weather conditions in past years. The results will help you decide how hot, cold, wet, or windy it might be!

Date:

Astronomy

Mar. 21, 2013 Rise Set
Actual Time 6:47 AM AKDT 7:06 PM AKDT
Civil Twilight 6:10 AM AKDT 7:44 PM AKDT
Nautical Twilight 5:25 AM AKDT 8:29 PM AKDT
Astronomical Twilight 4:37 AM AKDT 9:17 PM AKDT
Moon 12:49 PM AKDT (3/21) 4:09 AM AKDT (3/21)
Length of Visible Light 13h 34m
Length of Day
12h 18m
Waxing Gibbous, 70% of the Moon is Illuminated
Mar 21
Waxing Gibbous
Mar 27
Full
Apr 2
Last Quarter
Apr 10
New
Apr 18
First Quarter

Hourly Weather History & Observations

Time (AKDT) Temp. Windchill Dew Point Humidity Pressure Visibility Wind Dir Wind Speed Gust Speed Precip Events Conditions
12:16 AM 28.4 °F 19.1 °F 19.4 °F 69% 29.79 in 10.0 mi East 10.4 mph - N/A   Partly Cloudy
12:36 AM 28.4 °F 19.1 °F 19.4 °F 69% 29.80 in 10.0 mi East 10.4 mph - N/A   Mostly Cloudy
12:56 AM 30.2 °F 20.2 °F 21.2 °F 69% 29.80 in 10.0 mi East 12.7 mph - N/A   Overcast
1:16 AM 30.2 °F 19.3 °F 19.4 °F 64% 29.80 in 10.0 mi East 15.0 mph - N/A   Overcast
1:36 AM 30.2 °F 18.9 °F 17.6 °F 60% 29.80 in 10.0 mi East 16.1 mph - N/A   Mostly Cloudy
1:56 AM 28.4 °F 17.5 °F 19.4 °F 69% 29.81 in 10.0 mi East 13.8 mph - N/A   Overcast
2:16 AM 30.2 °F 19.3 °F 19.4 °F 64% 29.82 in 10.0 mi East 15.0 mph - N/A   Overcast
2:36 AM 28.4 °F 17.5 °F 19.4 °F 69% 29.82 in 10.0 mi East 13.8 mph - N/A   Overcast
2:56 AM 30.2 °F 20.2 °F 19.4 °F 64% 29.83 in 10.0 mi East 12.7 mph - N/A   Overcast
3:16 AM 30.2 °F 21.3 °F 19.4 °F 64% 29.84 in 10.0 mi East 10.4 mph - N/A   Mostly Cloudy
3:36 AM 28.4 °F 19.1 °F 19.4 °F 69% 29.85 in 10.0 mi East 10.4 mph - N/A   Overcast
3:56 AM 28.4 °F 20.4 °F 19.4 °F 69% 29.86 in 7.0 mi East 8.1 mph - N/A   Overcast
4:16 AM 28.4 °F 19.7 °F 21.2 °F 74% 29.86 in 3.0 mi East 9.2 mph - N/A   Overcast
4:36 AM 28.4 °F 19.1 °F 21.2 °F 74% 29.86 in 7.0 mi East 10.4 mph - N/A   Mostly Cloudy
4:56 AM 28.4 °F 17.5 °F 21.2 °F 74% 29.86 in 10.0 mi East 13.8 mph - N/A   Overcast
5:16 AM 28.4 °F 18.0 °F 21.2 °F 74% 29.86 in 10.0 mi East 12.7 mph - N/A   Overcast
5:36 AM 28.4 °F 18.5 °F 21.2 °F 74% 29.87 in 10.0 mi East 11.5 mph - N/A   Overcast
5:56 AM 30.2 °F 20.2 °F 21.2 °F 69% 29.88 in 10.0 mi East 12.7 mph - N/A   Overcast
6:16 AM 30.2 °F 20.2 °F 21.2 °F 69% 29.88 in 10.0 mi East 12.7 mph 19.6 mph N/A   Overcast
6:36 AM 30.2 °F 21.3 °F 21.2 °F 69% 29.89 in 10.0 mi East 10.4 mph - N/A   Overcast
6:56 AM 30.2 °F 24.3 °F 21.2 °F 69% 29.90 in 10.0 mi SE 5.8 mph - N/A   Overcast
7:16 AM 30.2 °F 21.3 °F 21.2 °F 69% 29.90 in 10.0 mi East 10.4 mph - N/A   Overcast
7:36 AM 28.4 °F 24.6 °F 21.2 °F 74% 29.91 in 7.0 mi SSW 3.5 mph - N/A   Overcast
7:56 AM 28.4 °F 19.7 °F 21.2 °F 74% 29.92 in 3.0 mi ENE 9.2 mph - N/A   Overcast
8:16 AM 28.4 °F 18.5 °F 21.2 °F 74% 29.92 in 3.0 mi East 11.5 mph 16.1 mph N/A   Overcast
8:36 AM 28.4 °F 18.5 °F 21.2 °F 74% 29.93 in 3.0 mi East 11.5 mph - N/A   Overcast
8:56 AM 28.4 °F 19.1 °F 23.0 °F 80% 29.94 in 10.0 mi East 10.4 mph - N/A   Overcast
9:16 AM 28.4 °F 20.4 °F 23.0 °F 80% 29.95 in 10.0 mi ENE 8.1 mph - N/A   Overcast
9:36 AM 28.4 °F 19.7 °F 21.2 °F 74% 29.96 in 10.0 mi ENE 9.2 mph - N/A   Overcast
9:56 AM 28.4 °F 22.2 °F 21.2 °F 74% 29.98 in 10.0 mi NE 5.8 mph - N/A   Mostly Cloudy
10:16 AM 28.4 °F - 21.2 °F 74% 29.99 in 10.0 mi Calm Calm - N/A   Mostly Cloudy
10:36 AM 28.4 °F 23.3 °F 21.2 °F 74% 30.00 in 10.0 mi NNW 4.6 mph - 0.01 in   Mostly Cloudy
10:56 AM 28.4 °F 24.6 °F 21.2 °F 74% 30.00 in 10.0 mi North 3.5 mph - 0.01 in   Mostly Cloudy
11:16 AM 30.2 °F 25.4 °F 23.0 °F 75% 30.01 in 10.0 mi NNW 4.6 mph - N/A   Mostly Cloudy
11:36 AM 30.2 °F 24.3 °F 21.2 °F 69% 30.02 in 10.0 mi North 5.8 mph - N/A   Mostly Cloudy
11:56 AM 30.2 °F 24.3 °F 21.2 °F 69% 30.02 in 10.0 mi NNW 5.8 mph - N/A   Mostly Cloudy
12:16 PM 30.2 °F 23.4 °F 21.2 °F 69% 30.03 in 10.0 mi NNW 6.9 mph - N/A   Mostly Cloudy
12:36 PM 30.2 °F 23.4 °F 21.2 °F 69% 30.03 in 10.0 mi North 6.9 mph - N/A   Mostly Cloudy
12:56 PM 30.2 °F 23.4 °F 23.0 °F 75% 30.04 in 10.0 mi North 6.9 mph - N/A   Overcast
1:16 PM 30.2 °F 24.3 °F 23.0 °F 75% 30.05 in 10.0 mi North 5.8 mph - N/A   Overcast
1:36 PM 32.0 °F 27.5 °F 21.2 °F 64% 30.06 in 10.0 mi North 4.6 mph - N/A   Overcast
1:56 PM 32.0 °F 26.4 °F 23.0 °F 69% 30.07 in 10.0 mi North 5.8 mph - N/A   Overcast
2:16 PM 32.0 °F - 24.8 °F 75% 30.07 in 10.0 mi Calm Calm - N/A   Overcast
2:36 PM 32.0 °F 26.4 °F 24.8 °F 75% 30.07 in 10.0 mi North 5.8 mph - N/A   Overcast
2:56 PM 32.0 °F 25.6 °F 24.8 °F 75% 30.08 in 10.0 mi NNW 6.9 mph - N/A   Overcast
3:16 PM 32.0 °F 27.5 °F 24.8 °F 75% 30.09 in 10.0 mi NNW 4.6 mph - N/A   Overcast
3:36 PM 32.0 °F 27.5 °F 24.8 °F 75% 30.10 in 10.0 mi NNW 4.6 mph - N/A   Overcast
3:56 PM 32.0 °F 27.5 °F 24.8 °F 75% 30.10 in 10.0 mi NW 4.6 mph - N/A   Overcast
4:16 PM 32.0 °F - 24.8 °F 75% 30.11 in 10.0 mi Calm Calm - N/A   Overcast
4:36 PM 33.8 °F 30.8 °F 24.8 °F 70% 30.12 in 10.0 mi SSE 3.5 mph - N/A   Overcast
4:56 PM 33.8 °F - 24.8 °F 70% 30.12 in 10.0 mi Calm Calm - N/A   Scattered Clouds
5:16 PM 33.8 °F 29.6 °F 24.8 °F 70% 30.13 in 10.0 mi WNW 4.6 mph - N/A   Scattered Clouds
5:36 PM 32.0 °F 27.5 °F 23.0 °F 69% 30.14 in 10.0 mi WNW 4.6 mph - N/A   Scattered Clouds
5:56 PM 32.0 °F 27.5 °F 23.0 °F 69% 30.15 in 10.0 mi NW 4.6 mph - N/A   Overcast
6:16 PM 32.0 °F 27.5 °F 24.8 °F 75% 30.15 in 10.0 mi NNW 4.6 mph - N/A   Overcast
6:36 PM 32.0 °F 25.6 °F 21.2 °F 64% 30.16 in 10.0 mi NW 6.9 mph - N/A   Overcast
6:56 PM 32.0 °F 26.4 °F 23.0 °F 69% 30.17 in 10.0 mi NNW 5.8 mph - N/A   Overcast
7:16 PM 30.2 °F 21.9 °F 21.2 °F 69% 30.18 in 10.0 mi NW 9.2 mph - N/A   Overcast
7:36 PM 30.2 °F 23.4 °F 21.2 °F 69% 30.18 in 10.0 mi NNW 6.9 mph - N/A   Overcast
7:56 PM 28.4 °F 23.3 °F 19.4 °F 69% 30.20 in 10.0 mi NNW 4.6 mph - N/A   Overcast
8:16 PM 28.4 °F 19.1 °F 19.4 °F 69% 30.21 in 10.0 mi NNW 10.4 mph - N/A   Overcast
8:36 PM 28.4 °F 19.7 °F 19.4 °F 69% 30.22 in 10.0 mi NNW 9.2 mph - N/A   Overcast
8:56 PM 28.4 °F 20.4 °F 19.4 °F 69% 30.23 in 10.0 mi NNW 8.1 mph - N/A   Partly Cloudy
9:16 PM 28.4 °F 20.4 °F 19.4 °F 69% 30.24 in 10.0 mi NNW 8.1 mph - N/A   Partly Cloudy
9:36 PM 28.4 °F 18.5 °F 17.6 °F 64% 30.24 in 10.0 mi NW 11.5 mph - N/A   Partly Cloudy
9:56 PM 28.4 °F 19.7 °F 17.6 °F 64% 30.25 in 10.0 mi WNW 9.2 mph - N/A   Partly Cloudy
10:16 PM 26.6 °F 14.3 °F 17.6 °F 69% 30.25 in 10.0 mi West 16.1 mph - N/A   Partly Cloudy
10:36 PM 26.6 °F 15.7 °F 17.6 °F 69% 30.26 in 10.0 mi West 12.7 mph - N/A   Partly Cloudy
10:56 PM 26.6 °F 18.2 °F 17.6 °F 69% 30.27 in 10.0 mi West 8.1 mph - N/A   Partly Cloudy
11:16 PM 26.6 °F 19.1 °F 17.6 °F 69% 30.27 in 10.0 mi WSW 6.9 mph - N/A   Partly Cloudy
11:36 PM 26.6 °F 19.1 °F 17.6 °F 69% 30.27 in 10.0 mi SSW 6.9 mph - N/A   Clear
11:56 PM 26.6 °F 19.1 °F 17.6 °F 69% 30.28 in 10.0 mi SW 6.9 mph - N/A   Clear